Flag for Brazil

Past Weather in Recife, Pernambuco, Brazil — Yesterday and Last 2 Weeks

Now
79 °F

Passing clouds.


Feels Like: 81 °F
Forecast: 82 / 76 °F
Wind: 10 mph from Southeast

Location: Recife Aeroporto
Current Time: Sep 24, 2020 at 9:30:50 pm
Latest Report: Sep 24, 2020 at 9:00 pm
Visibility: N/A
Pressure30.01 "Hg
Humidity: 74%
Dew Point: 70 °F
Location of RecifeLocation

Past Weather in Recife — Graph

°F

Recife Temperature Yesterday

Maximum temperature yesterday: 84 °F (at 9:00 am)
Minimum temperature yesterday: 77 °F (at 2:00 am)
Average temperature yesterday: 80 °F

High & Low Weather Summary for the Past Weeks

 TemperatureHumidityPressure
High86 °F (Sep 20, 11:00 am)89% (Sep 14, 12:00 am)30.09 "Hg (Sep 14, 12:00 am)
Low72 °F (Sep 17, 5:00 am)55% (Sep 12, 12:00 pm)29.89 "Hg (Sep 20, 3:00 pm)
Average80 °F71%30.00 "Hg
* Reported Sep 9 8:00 pm — Sep 24 8:00 pm, Recife. Weather by CustomWeather, © 2020

Note: Actual official high and low records may vary slightly from our data, if they occured in-between our weather recording intervals... More about our weather records

Recife Weather History for the Previous 24 Hours

Scroll right to see more
 ConditionsComfort  
Time TempWeatherWind HumidityBarometerVisibility
8:00 pm
Thu, Sep 24
79 °FPassing clouds.10 mph70%30.01 "HgN/A
7:00 pm79 °FPassing clouds.9 mph70%30.01 "HgN/A
6:00 pm79 °FPassing clouds.12 mph70%29.98 "HgN/A
5:00 pm79 °FScattered clouds.14 mph70%29.95 "HgN/A
4:00 pm81 °FScattered clouds.13 mph66%29.95 "HgN/A
3:00 pm82 °FScattered clouds.13 mph62%29.95 "HgN/A
2:00 pm82 °FScattered clouds.14 mph62%29.95 "HgN/A
1:00 pm84 °FScattered clouds.10 mph62%29.98 "HgN/A
12:00 pm84 °FScattered clouds.14 mph58%30.01 "HgN/A
11:00 am84 °FScattered clouds.10 mph62%30.04 "HgN/A
10:00 am82 °FPartly sunny.13 mph62%30.07 "HgN/A
9:00 am82 °FBroken clouds.10 mph66%30.07 "HgN/A
8:00 am82 °FBroken clouds.12 mph62%30.07 "HgN/A
7:00 am79 °FPartly sunny.12 mph70%30.04 "HgN/A
6:00 am79 °FPartly sunny.12 mph65%30.01 "HgN/A
5:00 am77 °FPassing clouds.10 mph74%30.01 "HgN/A
4:00 am77 °FPassing clouds.12 mph74%30.01 "HgN/A
3:00 am77 °FPassing clouds.12 mph74%30.01 "HgN/A
2:00 am79 °FPassing clouds.12 mph74%30.01 "HgN/A
1:00 am79 °FPassing clouds.9 mph74%30.01 "HgN/A
12:00 am79 °FPassing clouds.9 mph74%30.04 "HgN/A
11:00 pm
Wed, Sep 23
79 °FPassing clouds.13 mph70%30.04 "HgN/A
10:00 pm79 °FPartly cloudy.12 mph70%30.04 "HgN/A
9:00 pm79 °FPassing clouds.12 mph70%30.04 "HgN/A
Weather by CustomWeather, © 2020

See weather overview